Regional Weather Roundup
Issued by NWS

Home | Current Version | Previous Version | Text Only | Print | Product List | Glossary Off
Versions: 1 2 3 4 5 6 7 8 9 10 11 12 13 14 15 16 17 18 19 20 21 22 23 24 25 26 27 28 29 30 31 32 33 34 35 36 37 38 39 40 41 42 43 44 45 46 47 48 49 50

000
ASUS43 KMKX 251811
RWRWI

WISCONSIN REGIONAL WEATHER ROUNDUP
NATIONAL WEATHER SERVICE MILWAUKEE/SULLIVAN WI
1200 PM CST THU DEC 25 2014

NOTE: "FAIR" INDICATES FEW OR NO CLOUDS BELOW 12,000 FEET WITH NO
SIGNIFICANT WEATHER AND/OR OBSTRUCTIONS TO VISIBILITY.

WIZ001-002-006>008-014>016-023>028-251900-
NORTHWEST WISCONSIN

CITY           SKY/WX    TMP DP  RH WIND       PRES   REMARKS
SUPERIOR ARPT  CLOUDY    33  29  86 W6        29.71S WCI  27
6HR MIN TEMP:  32; 6HR MAX TEMP:  33;

ASHLAND        CLOUDY    33  28  81 SW12G20   29.71R WCI  24
6HR MIN TEMP:  32; 6HR MAX TEMP:  34;

HAYWARD        CLOUDY    31  26  82 SW12G18   29.72R WCI  22
6HR MIN TEMP:  31; 6HR MAX TEMP:  31;

SIREN          CLOUDY    32  28  86 SW7       29.73S WCI  26
6HR MIN TEMP:  31; 6HR MAX TEMP:  32;

CUMBERLAND     CLOUDY    30  28  93 SW9       29.73F WCI  22
RICE LAKE      CLOUDY    32  28  84 S7        29.76S WCI  26
6HR MIN TEMP:  31; 6HR MAX TEMP:  32;

CHETEK         CLOUDY    32  28  86 S6        29.76S WCI  26
6HR MIN TEMP:  30; 6HR MAX TEMP:  32;

LADYSMITH      CLOUDY    32  28  85 SW10      29.77R WCI  24
6HR MIN TEMP:  31; 6HR MAX TEMP:  32;

EAU CLAIRE     CLOUDY    33  27  78 S12       29.77F WCI  24
6HR MIN TEMP:  30; 6HR MAX TEMP:  33; 6HR PCP: TRACE;

MENOMONIE      CLOUDY    33  29  85 S7        29.77F WCI  27
6HR MIN TEMP:  31; 6HR MAX TEMP:  33;

NEW RICHMOND   CLOUDY    32  30  93 S8        29.75S WCI  25
6HR MIN TEMP:  30; 6HR MAX TEMP:  32;

OSCEOLA        LGT SNOW  32  32  99 S7        29.78R WCI  26
6HR MIN TEMP:  31; 6HR MAX TEMP:  33;

$$

WIZ003>005-009-010-017-018-251900-
NORTH CENTRAL WISCONSIN

CITY           SKY/WX    TMP DP  RH WIND       PRES   REMARKS
MANITOWISH WTR CLOUDY    30  28  92 SW13      29.69R WCI  20
6HR MIN TEMP:  29; 6HR MAX TEMP:  31;

ARBOR VITAE    CLOUDY    32  28  86 SW10G18   29.69S WCI  24
6HR MIN TEMP:  32; 6HR MAX TEMP:  32;

WOODRUFF       CLOUDY    32  28  86 SW10G18   29.69S WCI  24
6HR MIN TEMP:  32; 6HR MAX TEMP:  32;

RHINELANDER    CLOUDY    31  27  85 SW10      29.72R WCI  22
6HR MIN TEMP:  29; 6HR MAX TEMP:  31;

EAGLE RIVER    CLOUDY    31  29  93 SW7       29.69S WCI  24
6HR MIN TEMP:  29; 6HR MAX TEMP:  31;

LAND O LAKES   CLOUDY    32  29  90 SW8       29.69R WCI  25
6HR MIN TEMP:  30; 6HR MAX TEMP:  32;

PHILLIPS       CLOUDY    31  27  85 SW12      29.71S WCI  21
6HR MIN TEMP:  29; 6HR MAX TEMP:  31;

TOMAHAWK       CLOUDY    31  27  84 CALM      29.74R
6HR MIN TEMP:  29; 6HR MAX TEMP:  31;

MEDFORD        CLOUDY    30  26  86 SW9       29.76R WCI  21
6HR MIN TEMP:  28; 6HR MAX TEMP:  30;

MERRILL        CLOUDY    31  27  86 SW9G17    29.76R WCI  23
6HR MIN TEMP:  30; 6HR MAX TEMP:  32;

$$

WIZ029-030-035-036-043>047-251900-
CENTRAL WISCONSIN

CITY           SKY/WX    TMP DP  RH WIND       PRES   REMARKS
WAUSAU         CLOUDY    31  27  85 SW13      29.76S WCI  21
6HR MIN TEMP:  31; 6HR MAX TEMP:  32;

MOSINEE        CLOUDY    30  28  93 SW9G17    29.79R WCI  22
MARSHFIELD     CLOUDY    32  27  81 SW14      29.79R WCI  22
6HR MIN TEMP:  30; 6HR MAX TEMP:  32;

STEVENS POINT  CLOUDY    30  26  83 SW9       29.81R WCI  22
6HR MIN TEMP:  29; 6HR MAX TEMP:  30;

WAUPACA        CLOUDY    36  29  75 SW9       29.82S WCI  29
6HR MIN TEMP:  34; 6HR MAX TEMP:  36;

WAUTOMA        PTSUNNY   35  30  82 SW12      29.83F WCI  27
6HR MIN TEMP:  33; 6HR MAX TEMP:  35;

WISC RAPIDS    CLOUDY    33  26  75 SW7       29.82S WCI  27
6HR MIN TEMP:  31; 6HR MAX TEMP:  33;

CAMP DOUGLAS   CLOUDY    34  33  99 S7        29.82S WCI  28
6HR MIN TEMP:  30; 6HR MAX TEMP:  34;

$$

WIZ011>013-019>022-031-037>040-048>050-251900-
NORTHEAST WISCONSIN

CITY           SKY/WX    TMP DP  RH WIND       PRES   REMARKS
ANTIGO         CLOUDY    30  27  88 SW12      29.75S WCI  20
6HR MIN TEMP:  29; 6HR MAX TEMP:  31;

SHAWANO        CLOUDY    35  29  76 SW13G18   29.80R WCI  27
6HR MIN TEMP:  34; 6HR MAX TEMP:  36;

OCONTO         CLOUDY    35  30  83 SW10G20   29.80R WCI  27
6HR MIN TEMP:  30; 6HR MAX TEMP:  35;

STURGEON BAY   CLOUDY    34  27  75 SW18      29.80S WCI  23
6HR MIN TEMP:  30; 6HR MAX TEMP:  34;

GREEN BAY      CLOUDY    34  29  82 SW14G23   29.82S WCI  25
6HR MIN TEMP:  33; 6HR MAX TEMP:  34;

MANITOWOC      CLOUDY    35  29  78 W16       29.84R WCI  25
6HR MIN TEMP:  33; 6HR MAX TEMP:  37;

APPLETON       CLOUDY    34  30  86 SW16      29.83R WCI  23
CLINTONVILLE   CLOUDY    32  28  86 SW15      29.81S WCI  22
OSHKOSH        CLOUDY    34  28  79 SW14G22   29.83S WCI  25
6HR MIN TEMP:  33; 6HR MAX TEMP:  34;

$$

WIZ032>034-041-042-053>061-251900-
SOUTHWEST WISCONSIN

CITY           SKY/WX    TMP DP  RH WIND       PRES   REMARKS
LA CROSSE      CLOUDY    36  29  75 S12       29.80F WCI  28
6HR MIN TEMP:  32; 6HR MAX TEMP:  36;

SPARTA         CLOUDY    35  28  78 S7        29.82S WCI  29
6HR MIN TEMP:  31; 6HR MAX TEMP:  35;

VIROQUA        CLOUDY    33  32  97 S10       29.80F WCI  25
6HR MIN TEMP:  29; 6HR MAX TEMP:  33;

BOSCOBEL       CLOUDY    39  30  70 S8        29.84F WCI  33
6HR MIN TEMP:  33; 6HR MAX TEMP:  39;

PRAIRIE DU CHI CLOUDY    38  29  69 S6        29.83S WCI  34
6HR MIN TEMP:  32; 6HR MAX TEMP:  38;

PLATTEVILLE    MOSUNNY   39  33  78 S18       29.84F WCI  29
6HR MIN TEMP:  31; 6HR MAX TEMP:  39;

$$

WIZ056-057-062-063-064-067-068-251900-
SOUTH CENTRAL WISCONSIN

CITY           SKY/WX    TMP DP  RH WIND       PRES   REMARKS
REEDSBURG      CLOUDY    34  30  84 S7        29.83F WCI  28
6HR MIN TEMP:  30; 6HR MAX TEMP:  34;

BARABOO/DELLS  CLOUDY    33  28  82 SW10      29.83F WCI  25
6HR MIN TEMP:  31; 6HR MAX TEMP:  33;

LONE ROCK      CLOUDY    42  30  62 S13       29.85F
6HR MIN TEMP:  35; 6HR MAX TEMP:  42;

MINERAL POINT  PTSUNNY   37  32  81 S13       29.83F WCI  29
MADISON        PTSUNNY   36  28  73 S12       29.86S WCI  28
6HR MIN TEMP:  32; 6HR MAX TEMP:  36;

MIDDLETON      PTSUNNY   38  30  73 S13       29.85F WCI  30
6HR MIN TEMP:  32; 6HR MAX TEMP:  38;

WATERTOWN      CLOUDY    36  30  80 SW15      29.87F WCI  26
6HR MIN TEMP:  32; 6HR MAX TEMP:  36;

MONROE         PTSUNNY   36  32  87 S16       29.86F WCI  26
JANESVILLE     MOSUNNY   37  30  75 SW12      29.89F WCI  30
$$

WIZ051-052-058>065-066-070>072-251900-
SOUTHEAST WISCONSIN

CITY           SKY/WX    TMP DP  RH WIND       PRES   REMARKS
MILWAUKEE      PTSUNNY   37  26  64 SW18G24   29.89F WCI  27
6HR MIN TEMP:  34; 6HR MAX TEMP:  38;

WAUKESHA       PTSUNNY   34  28  80 SW12G17   29.90S WCI  25
MILWAUKEE/TIMM MOSUNNY   37  27  65 SW17      29.88F WCI  28
RACINE         MOSUNNY   37  28  70 SW13G23   29.91F WCI  29
6HR MIN TEMP:  34; 6HR MAX TEMP:  38;

BURLINGTON     MOSUNNY   35  28  77 SW14      29.90S WCI  26
6HR MIN TEMP:  31; 6HR MAX TEMP:  35;

KENOSHA        MOSUNNY   37  29  72 SW20G25   29.90F WCI  27
6HR MIN TEMP:  33; 6HR MAX TEMP:  37;

FOND DU LAC    PTSUNNY   35  28  75 SW14      29.84S WCI  26
6HR MIN TEMP:  33; 6HR MAX TEMP:  35;

SHEBOYGAN      PTSUNNY   36  29  75 SW15G21   29.85R WCI  27
6HR MIN TEMP:  34; 6HR MAX TEMP:  36;

WEST BEND      PTSUNNY   34  28  80 SW12G17   29.86S WCI  25
JUNEAU         CLOUDY    33  29  84 S15       29.87F WCI  23
6HR MIN TEMP:  31; 6HR MAX TEMP:  33;

$$

LSZ147-162-251900-
LAKE SUPERIOR

STATION/POSITION TIME  TEMP    WIND        PRES    WAVE
                       AIR SEA DIR/SP/G            HT/PER
                 (UTC) (F)     (DEG/KT/KT) (MB)    (FT/S)
DEVILS ISLAND    1800   34     240/ 21/ 22 1005.8R
PORT WING        1700   34     240/ 11/ 16 1006.1R
SAXON HARBOR     1700   35     220/  3/ 12 1005.8R
$$

LMZ867-665-643>646-251900-
LAKE MICHIGAN

STATION/POSITION TIME  TEMP    WIND        PRES    WAVE


USA.gov is the U.S. government's official web portal to all federal, state and local government web resources and services.